Stations météo

réclame
Mon MeteoGroup
Preston, Moor Park, Grande-Bretagne (99113): Température de l'air & dewpoint: 23.03.2020 03:00:00 - 29.03.2020 03:00:00 (BST)Preston, Moor Park, Grande-Bretagne (99113): Quantités de précipitations: 23.03.2020 03:00:00 - 29.03.2020 03:00:00 (BST)
Date & Time tt [°C] td [°C] rr [mm]
29.03.2020 03:00:00 3,3 -4,2 0,0
29.03.2020 02:00:00 4,1 -3,0 0,0
29.03.2020 01:00:00 3,4 -1,6 0,0
29.03.2020 00:00:00 4,1 -0,7 0,0
28.03.2020 23:00:00 3,6 -1,6 0,0
28.03.2020 22:00:00 4,0 -1,5 0,0
28.03.2020 21:00:00 4,1 -1,9 0,0
28.03.2020 20:00:00 5,4 -1,4 0,0
28.03.2020 19:00:00 5,3 0,8 0,0
28.03.2020 18:00:00 7,5 -0,2 0,0
28.03.2020 17:00:00 8,4 -0,2 0,0
28.03.2020 16:00:00 9,4 -0,4 0,0
28.03.2020 15:00:00 9,4 1,4 0,0
28.03.2020 14:00:00 9,7 1,8 0,0
28.03.2020 13:00:00 9,7 1,7 0,0
28.03.2020 12:00:00 9,6 2,2 0,0
28.03.2020 11:00:00 8,6 0,9 0,0
28.03.2020 10:00:00 8,5 2,1 0,0
28.03.2020 09:00:00 7,4 1,7 0,0
28.03.2020 08:00:00 7,4 1,2 0,0
28.03.2020 07:00:00 6,6 -0,1 0,0
28.03.2020 06:00:00 6,6 0,5 0,0
28.03.2020 05:00:00 6,4 2,0 0,0
28.03.2020 04:00:00 6,1 4,0 0,0
28.03.2020 03:00:00 3,8 1,5 0,0
28.03.2020 02:00:00 2,0 0,0 0,0
28.03.2020 01:00:00 3,1 0,5 0,0
28.03.2020 00:00:00 3,3 0,3 0,0
27.03.2020 23:00:00 4,5 0,0 0,0
27.03.2020 22:00:00 5,9 -0,9 0,0
27.03.2020 21:00:00 6,8 -2,5 0,0
27.03.2020 20:00:00 8,2 -3,8 0,0
27.03.2020 19:00:00 10,7 -2,2 0,0
27.03.2020 18:00:00 12,1 -2,4 0,0
27.03.2020 17:00:00 12,6 1,2 0,0
27.03.2020 16:00:00 12,5 -0,4 0,0
27.03.2020 15:00:00 12,0 -2,1 0,0
27.03.2020 14:00:00 11,2 -0,9 0,0
27.03.2020 13:00:00 10,4 -1,0 0,0
27.03.2020 12:00:00 9,4 -1,9 0,0
27.03.2020 11:00:00 8,1 0,2 0,0
27.03.2020 10:00:00 5,6 -0,4 0,0
27.03.2020 09:00:00 3,9 -0,2 0,0
27.03.2020 08:00:00 2,3 0,0 0,0
27.03.2020 07:00:00 1,3 -0,6 0,0
27.03.2020 06:00:00 1,6 0,1 0,0
27.03.2020 05:00:00 1,9 0,1 0,0
27.03.2020 04:00:00 2,3 0,5 0,0
27.03.2020 03:00:00 2,5 0,0 0,0
27.03.2020 02:00:00 3,6 0,1 0,0
27.03.2020 01:00:00 4,7 -0,1 0,0
27.03.2020 00:00:00 5,5 -0,4 0,0
26.03.2020 23:00:00 6,2 -1,1 0,0
26.03.2020 22:00:00 7,8 -1,6 0,0
26.03.2020 21:00:00 7,6 -2,5 0,0
26.03.2020 20:00:00 10,6 -3,1 0,0
26.03.2020 19:00:00 12,6 -2,7 0,0
26.03.2020 18:00:00 14,5 -2,7 0,0
26.03.2020 17:00:00 15,5 -4,0 0,0
26.03.2020 16:00:00 15,6 -3,9 0,0
26.03.2020 15:00:00 15,7 -1,8 0,0
26.03.2020 14:00:00 15,6 -1,2 0,0
26.03.2020 13:00:00 14,9 2,8 0,0
26.03.2020 12:00:00 13,6 2,0 0,0
26.03.2020 11:00:00 12,4 3,2 0,0
26.03.2020 10:00:00 8,9 1,2 0,0
26.03.2020 09:00:00 6,5 1,8 0,0
26.03.2020 08:00:00 3,8 0,6 0,0
26.03.2020 07:00:00 3,1 -0,1 0,0
26.03.2020 06:00:00 4,2 0,1 0,0
26.03.2020 05:00:00 4,9 0,1 0,0
26.03.2020 04:00:00 5,4 0,4 0,0
26.03.2020 03:00:00 6,0 0,6 0,0
26.03.2020 02:00:00 6,1 1,3 0,0
26.03.2020 01:00:00 6,2 2,0 0,0
26.03.2020 00:00:00 6,1 3,4 0,0
25.03.2020 23:00:00 7,0 5,0 0,0
25.03.2020 22:00:00 8,8 6,6 0,0
25.03.2020 21:00:00 10,2 5,8 0,0
25.03.2020 20:00:00 12,8 6,7 0,0
25.03.2020 19:00:00 15,4 6,0 0,0
25.03.2020 18:00:00 16,3 5,8 0,0
25.03.2020 17:00:00 17,6 2,3 0,0
25.03.2020 16:00:00 17,5 3,8 0,0
25.03.2020 15:00:00 16,2 5,0 0,0
25.03.2020 14:00:00 16,6 5,2 0,0
25.03.2020 13:00:00 15,9 5,5 0,0
25.03.2020 12:00:00 13,9 5,7 0,0
25.03.2020 11:00:00 12,7 5,8 0,0
25.03.2020 10:00:00 10,5 4,7 0,0
25.03.2020 09:00:00 8,6 4,2 0,0
25.03.2020 08:00:00 6,6 2,8 0,0
25.03.2020 07:00:00 6,7 3,0 0,0
25.03.2020 06:00:00 7,5 5,0 0,0
25.03.2020 05:00:00 7,6 6,1 0,0
25.03.2020 04:00:00 8,0 6,9 0,0
25.03.2020 03:00:00 7,6 7,4 0,0
25.03.2020 02:00:00 6,1 5,4 0,0
25.03.2020 01:00:00 8,0 7,7 0,0
25.03.2020 00:00:00 6,9 6,1 0,0
24.03.2020 23:00:00 7,6 6,7 0,0
24.03.2020 22:00:00 8,4 6,7 0,0
24.03.2020 21:00:00 9,8 6,7 0,0
24.03.2020 20:00:00 11,9 7,6 0,0
24.03.2020 19:00:00 14,7 8,4 0,0
24.03.2020 18:00:00 16,0 8,4 0,0
24.03.2020 17:00:00 16,1 8,4 0,0
24.03.2020 16:00:00 15,5 8,3 0,0
24.03.2020 15:00:00 15,1 7,2 0,0
24.03.2020 14:00:00 14,2 6,3 0,0
24.03.2020 13:00:00 13,4 5,5 0,0
24.03.2020 12:00:00 11,5 3,9 0,0
24.03.2020 11:00:00 9,2 1,7 0,0
24.03.2020 10:00:00 7,8 0,1 0,0
24.03.2020 09:00:00 6,3 -0,8 0,0
24.03.2020 08:00:00 5,1 -1,5 0,0
24.03.2020 07:00:00 5,4 -2,3 0,0
24.03.2020 06:00:00 5,8 -2,6 0,0
24.03.2020 05:00:00 5,5 -2,4 0,0
24.03.2020 04:00:00 5,4 -2,4 0,0
24.03.2020 03:00:00 6,2 -1,3 0,0
24.03.2020 02:00:00 6,8 -1,2 0,0
24.03.2020 01:00:00 7,6 -0,7 0,0
24.03.2020 00:00:00 8,1 -0,5 0,0
23.03.2020 23:00:00 8,8 -0,6 0,0
23.03.2020 22:00:00 9,7 -1,2 0,0
23.03.2020 21:00:00 10,3 -1,1 0,0
23.03.2020 20:00:00 10,5 -1,1 0,0
23.03.2020 19:00:00 11,2 -1,6 0,0
23.03.2020 18:00:00 12,1 -1,3 0,0
23.03.2020 17:00:00 12,8 -0,3 0,0
23.03.2020 16:00:00 12,3 -0,6 0,0
23.03.2020 15:00:00 11,5 0,1 0,0
23.03.2020 14:00:00 11,7 0,2 0,0
23.03.2020 13:00:00 9,6 -1,6 0,0
23.03.2020 12:00:00 8,7 -1,5 0,0
23.03.2020 11:00:00 7,4 -1,4 0,0
23.03.2020 10:00:00 5,9 0,1 0,0
23.03.2020 09:00:00 2,5 -1,0 0,0
23.03.2020 08:00:00 2,1 -1,1 0,0
23.03.2020 07:00:00 0,5 -1,8 0,0
23.03.2020 06:00:00 -0,2 -2,1 0,0
23.03.2020 05:00:00 -0,1 -2,5 0,0
23.03.2020 04:00:00 1,4 -1,7 0,0
23.03.2020 03:00:00 - - -

tt = Température de l'air
td = dewpoint
rr = Quantités de précipitations

stations d'obs. à proximité